Miscellaneous Local Product
Issued by NWS North Platte, NE

Home | Current Version | Previous Version | Graphics & Text | Print | Product List | Glossary On
Versions: 1 2 3 4 5 6 7 8 9 10 11 12 13 14 15 16 17 18 19 20 21 22 23 24 25 26 27 28 29 30 31 32 33 34 35 36 37 38 39 40 41 42 43 44 45 46 47 48 49 50
000
AXUS43 KLBF 181710
MISLBF


WESTERN AND NORTH CENTRAL NEBRASKA HOURLY WEATHER ROUNDUP
NATIONAL WEATHER SERVICE NORTH PLATTE NE
1200 PM CDT WED OCT 18 2017

NOTE: "FAIR" INDICATES FEW OR NO CLOUDS BELOW 12,000 FEET WITH NO
SIGNIFICANT WEATHER AND/OR OBSTRUCTIONS TO VISIBILITY.

NOTE: STATIONS NOT REPORTING VARIABLES SUCH AS SKY/WEATHER OR
PRESSURE ARE PROVIDED BY RAWS AND APRS NETWORKS AND ARE NOT UNDER
NATIONAL WEATHER SERVICE QUALITY CONTROL.

...OBSERVATIONS IN AND NEAR THE EASTERN PANHANDLE OF NEBRASKA...

CITY           SKY/WX    TMP DP  RH WIND       PRES   REMARKS
PINE RIDGE     SUNNY     62  29  28 NE9       30.11R
GORDON         FAIR      62  28  27 NE14      30.10R
CHADRON        SUNNY     63  26  24 NE9       30.12R
ALLIANCE       SUNNY     66  24  20 NE18      30.11R
SIDNEY         SUNNY     71  16  12 N18G30    30.11R
CRESCENT LAKE    N/A     67  24  19 NE14        N/A
$$

...OBSERVATIONS IN NORTHERN NEBRASKA AND FAR SOUTHERN SOUTH DAKOTA...

CITY           SKY/WX    TMP DP  RH WIND       PRES   REMARKS
WINNER         FAIR      66  35  31 N23G31    30.02R
VALENTINE      SUNNY     66  30  26 N20G28    30.05R
THEDFORD       SUNNY     68  32  26 N13G21    30.05R
AINSWORTH      SUNNY     64  36  34 N17G26    30.03R
O`NEILL        SUNNY     66  37  34 N18G31    29.97R
ORD            LGT RAIN  71  28  20 N23G30    29.94R
BROKEN BOW     SUNNY     70  32  24 N25G38    29.96R
VALENTINE NWR    N/A     64  29  27 N13G30      N/A
HALSEY           N/A     68  28  22 N9G22       N/A
BUTTE            N/A     64  35  34 N20G31      N/A
CHAMBERS         N/A     67  37  33 N7          N/A
EWING            N/A     67  38  34 N8G20       N/A
$$

...OBSERVATIONS IN SOUTHWEST NEBRASKA AND FAR NORTHEAST COLORADO...

CITY           SKY/WX    TMP DP  RH WIND       PRES   REMARKS
WRAY           FAIR      72  25  17 NW9       30.08S
HOLYOKE        FAIR      77  18  10 NW20G26   30.08R
IMPERIAL       SUNNY     78  12   8 N18G26    30.04R
OGALLALA       SUNNY     73  23  15 N16G22    30.05R
NORTH PLATTE   SUNNY     74  28  18 N21G29    30.00R
MCCOOK         MOSUNNY   67  33  28 W10       29.99R
LEXINGTON      SUNNY     73  31  21 N17G23    29.97R
STAPLETON        N/A     69  35  28 NE3G20      N/A
GOTHENBURG       N/A     65  32  29 NW8         N/A
CALLAWAY         N/A     69  31  24 N20         N/A
$$

...OBSERVATIONS IN CENTRAL LINCOLN COUNTY AREA...

CITY           SKY/WX    TMP DP  RH WIND       PRES   REMARKS
N.P. AIRPORT   SUNNY     74  28  18 N21G29    30.00R
N.P. DOWNTOWN    N/A     72  32  23 N10G17      N/A
N.P. SOUTHEAST   N/A     72  30  21 N9G18       N/A
N.P. HILLCREST   N/A     71  28  20 N22G29      N/A
$$

...SOME OBSERVATIONS FROM AROUND THE REGION...

CITY           SKY/WX    TMP DP  RH WIND       PRES   REMARKS
DENVER         CLOUDY    69  16  13 W7        30.18R
LIMON          CLOUDY    73  14  10 N13       30.18R
ASPEN          CLOUDY    52  10  18 N5        30.36S
LARAMIE        SUNNY     62   8  12 VRB5      30.24R
CASPER         SUNNY     61  13  15 SW14      30.14S
CHEYENNE       SUNNY     66   9  10 W20G29    30.19R
SCOTTSBLUFF    SUNNY     70  19  14 NE14G20   30.11R
GRAND ISLAND   SUNNY     69  44  40 SW8       29.93R
OMAHA          MOSUNNY   66  48  52 S14       29.92F
SIOUX FALLS    PTSUNNY   66  42  41 N20G29    29.91R
PIERRE         SUNNY     62  26  25 N22       30.02R
RAPID CITY     SUNNY     58  23  26 N13       30.11S
BISMARCK       CLOUDY    55  22  27 NW13G26   29.99R
KANSAS CITY    MOSUNNY   67  47  48 SW18G26   30.02F
HILL CITY      SUNNY     70  45  40 CALM      29.99R
WICHITA        MOSUNNY   67  48  50 S16       30.02F
DODGE CITY     SUNNY     74  43  32 VRB6      30.01F
OKLAHOMA CITY  MOSUNNY   71  47  42 S14       30.11R
DALLAS         MOSUNNY   74  45  35 S12       30.15F
AMARILLO       SUNNY     69  44  40 S8        30.08S
$$




USA.gov is the U.S. government's official web portal to all federal, state and local government web resources and services.